OpenBCM V2.0.3 (Linux)

Packet Radio Mailbox

IZ3LSV

[San Dona' di P. JN]

 Login: GUEST





  
I0OJJ  > AMSAT    18.07.26 09:48l 323 Lines 15209 Bytes #999 (0) @ WW
BID : A5RNX_I0OJJ
Read: GUEST
Subj: 2Line Orbital Elements
Path: IZ3LSV<ED1ZAC<EA5URD<EA2RCF<LU9DCE<VE3TOK<VE3KPG<N2MH<N2NOV<VE3CGR<
      I0OJJ
Sent: 260712/0029z @:I0OJJ.ITA.EU [Rome] $:A5RNX_I0OJJ

>From i0ojj@i0ojj.ampr.org Sun Jul 12 02:29:53 2026
Received: from i0ojj.ampr.org by i0ojj.ampr.org (JNOS2.0q.1) with SMTP
	id AA17065293 ; Sun, 12 Jul 2026 02:29:53 +0200
Received: by i0ojj.ampr.org with SMTP
	id AA17065290 ; Sun, 12 Jul 2026 02:26:05 +0200
Message-Id: <17065291@i0ojj.ampr.org>
>From: i0ojj@i0ojj.ampr.org

SB KEPS @ AMSAT  $ORB26193.1
2Line Orbital Elements 26193.AMSAT

QST de W1STR

AMSAT Orbital Elements for Amateur Satellites in TLE Format
>From Orbital Analysis Office
New England Sci-Tech STEM Education Center
Natick MA July 12, 2026
To all radio amateurs


These element sets describe the orbits of various satellites 
in use by the amateur radio community. For details see:
www.amsat.org/keplerian-elements-formats/

A daily update of element sets is available at:
www.amsat.org/tle/daily-bulletin.txt
or without bulletin text:
www.amsat.org/tle/dailytle.txt


AO-07
1 07530U 74089B   26192.65227918 -.00000028  00000-0  11287-3 0  9996
2 07530 101.9904 206.1538 0012662  84.9028  27.9241 12.53698483363583
UO-11
1 14781U 84021B   26192.78688212  .00000834  00000-0  90293-4 0  9990
2 14781  97.8073 158.0896 0009188 100.8610 259.3643 14.90843828260799
LO-19
1 20442U 90005G   26192.60095825  .00000048  00000-0  33960-4 0  9998
2 20442  98.8847 215.0786 0012414 131.2116 229.0140 14.34130085905892
AO-27
1 22825U 93061C   26192.75285488  .00000029  00000-0  28149-4 0  9994
2 22825  98.6869 260.1561 0008946  35.3967 324.7808 14.30948497710513
FO-29
1 24278U 96046B   26192.56115524  .00000019  00000-0  53705-4 0  9991
2 24278  98.5222  38.0921 0350512  33.3553 328.9149 13.53275331476460
GO-32
1 25397U 98043D   26192.57915720  .00000017  00000-0  27605-4 0  9998
2 25397  99.0082 185.9544 0002088 120.3432 239.7952 14.24432894454804
ISS
1 25544U 98067A   26192.31485778  .00005525  00000-0  10843-3 0  9999
2 25544  51.6302 180.6822 0006688 282.4935  77.5305 15.48978902575497
NO-44
1 26931U 01043C   26192.60513081  .00000049  00000-0  49214-4 0  9990
2 26931  67.0491 181.1150 0005956 266.3338  93.7083 14.31964137293949
SO-50
1 27607U 02058C   26192.76768468  .00000395  00000-0  64587-4 0  9990
2 27607  64.5517  52.9312 0074623 257.9067 101.3671 14.83094566268104
CO-55
1 27844U 03031E   26192.55360871  .00000156  00000-0  86389-4 0  9997
2 27844  98.6741 200.8063 0010749 111.9802 248.2521 14.24350085195140
RS-22
1 27939U 03042A   26192.80646036  .00000593  00000-0  99511-4 0  9998
2 27939  98.3478  17.8625 0010936 184.0557 301.2910 14.73511019219177
CO-65
1 32785U 08021C   26192.70815016  .00003141  00000-0  19914-3 0  9990
2 32785  97.8285 174.6422 0007319 313.6866  46.3755 15.09679513988893
CO-66
1 32791U 08021J   26192.54516377  .00010960  00000-0  34002-3 0  9999
2 32791  97.7522 191.6211 0002685 165.1600 194.9721 15.33584480991022
RS-30
1 32953U 08025A   26192.80523020  .00000055  00000-0  32245-3 0  9996
2 32953  82.5055 340.1254 0018560 256.8371 103.0638 12.43180718822750
SRMSAT
1 37841U 11058D   26192.32393388  .00000351  00000-0  46525-4 0  9992
2 37841  19.9716 273.3792 0011857 108.9537 302.7584 14.11580564761239
ZACUBE-1
1 39417U 13066B   26192.20230991  .00001491  00000-0  11848-3 0  9996
2 39417  97.8013 154.6585 0043797 168.0001 192.2277 15.01317932684330
Delfi-N3xt
1 39428U 13066N   26192.73849736  .00004174  00000-0  36267-3 0  9992
2 39428  97.8335 113.0292 0075814 124.1028 236.7416 14.95335911678296
GOMX-1
1 39430U 13066Q   26192.76678233  .00000981  00000-0  15345-3 0  9996
2 39430  97.6478  31.6786 0128614 359.2365   0.8625 14.69537985673529
LO-74
1 39440U 13066AA  26192.77934956  .00001818  00000-0  17141-3 0  9991
2 39440  97.8908 141.8662 0056010 306.9645  52.6454 14.93953180680661
AO-73
1 39444U 13066AE  26191.98474831  .00004079  00000-0  25254-3 0  9994
2 39444  97.8286 163.9335 0037927 121.2536 239.2417 15.09785992683251
DTUSAT-2
1 40030U 14033W   26192.54081605  .00004323  00000-0  23319-3 0  9990
2 40030  98.0873 191.8202 0009024 142.6007 217.5854 15.15323901656371
LILACSAT-2
1 40908U 15049K   26192.64622513  .00012020  00000-0  19924-3 0  9992
2 40908  97.4632 230.4265 0008161 151.9388 208.2306 15.52271449599540
Lapan A3
1 41603U 16040E   26192.79647223  .00002063  00000-0  66487-4 0  9991
2 41603  97.1497 188.1371 0008281 291.0019  69.0338 15.33264540558586
CAS-2T
1 41847U 16066G   26192.75774159  .00000636  00000-0  97188-4 0  9990
2 41847  98.3814 268.2128 0342420  55.1696 308.1201 14.44765752508345
TechnoSat
1 42829U 17042E   26191.38633588  .00002596  00000-0  18607-3 0  9999
2 42829  97.4303 348.1655 0017861  18.8202 341.3681 15.05092056490191
AO-91
1 43017U 17073E   26192.61392611  .00003594  00000-0  15873-3 0  9990
2 43017  97.4679  59.3312 0148069 243.9569 114.6355 15.13032289469084
S-Net D
1 43186U 18014G   26192.73907553  .00003027  00000-0  15704-3 0  9997
2 43186  97.5339  97.3774 0006370 299.8497  60.2103 15.16898744462480
S-Net B
1 43187U 18014H   26192.68504350  .00003105  00000-0  16111-3 0  9990
2 43187  97.5348  97.3111 0006999 294.1184  65.9317 15.16867942462478
S-Net A
1 43188U 18014J   26192.73781729  .00002992  00000-0  15523-3 0  9993
2 43188  97.5356  97.5771 0006913 294.7248  65.3265 15.16907043462489
S-Net C
1 43189U 18014K   26192.68904905  .00003040  00000-0  15783-3 0  9994
2 43189  97.5373  97.6068 0008143 285.2578  74.7754 15.16859391461025
Ten-Koh
1 43677U 18084G   26192.49032885  .00002036  00000-0  15600-3 0  9993
2 43677  98.0751  25.8755 0010002  41.0624 319.1351 15.03032610419818
PO-101
1 43678U 18084H   26192.77679069  .00001502  00000-0  12410-3 0  9999
2 43678  98.1221  30.0616 0013007  94.9253 265.3455 15.00555767419906
QO-100
1 43700U 18090A   26192.64136420  .00000000  00000-0  00000-0 0  9998
2 43700   0.0269  40.7392 0002185 119.2299  26.2668  1.00269367 27921
MinXSS-2
1 43758U 18099A   26192.78887213  .00024308  00000-0  45525-3 0  9999
2 43758  97.4535 269.8221 0008380 170.8889 189.2515 15.48644977417932
AO-95
1 43770U 18099N   26192.12777210  .00006872  00000-0  26022-3 0  9993
2 43770  97.4378 252.2917 0007011 257.0089 103.0367 15.27218021416874
SNUSat 2
1 43782U 18099AA  26192.13275498  .00004635  00000-0  20463-3 0  9996
2 43782  97.4052 245.1517 0009764 202.2456 157.8358 15.22201002416671
SnugLite
1 43784U 18099AC  26192.64480922  .00006714  00000-0  25068-3 0  9990
2 43784  97.3863 246.6897 0003250 168.6794 191.4519 15.27707403417050
ITASat 1
1 43786U 18099AE  26192.72136529  .00003539  00000-0  17043-3 0  9998
2 43786  97.4021 243.7457 0010794 264.3546  95.6458 15.19355375416637
EAGLET 1
1 43790U 18099AJ  26192.65486342  .00002000  00000-0  11646-3 0  9991
2 43790  97.4223 241.6759 0009469 258.4389 101.5780 15.13118239416033
ESEO
1 43792U 18099AL  26192.65922913  .00001296  00000-0  97094-4 0  9990
2 43792  97.3952 228.9985 0010790 247.5261 112.4823 15.04312588415489
JO-97
1 43803U 18099AX  26192.68722269  .00009972  00000-0  30109-3 0  9990
2 43803  97.4124 255.6172 0006518 168.9842 191.1545 15.34443331417383
Suomi 100
1 43804U 18099AY  26192.68730980  .00007288  00000-0  26127-3 0  9993
2 43804  97.4182 252.9963 0010197 184.1974 175.9182 15.28978367417168
ISAT
1 43879U 18111D   26192.80088528  .00078043  00000-0  63878-3 0  9999
2 43879  97.5861 130.0063 0007139 146.3017 213.8700 15.70261010415020
UWE-4
1 43880U 18111E   26190.27481266  .00027640  00000-0  53768-3 0  9990
2 43880  97.5841 119.7053 0005271 218.3666 141.7210 15.47549208414192
Sparrow
1 43881U 18111F   26192.78835271  .00172546  00000-0  77361-3 0  9999
2 43881  97.6096 136.1309 0006711 142.9832 217.1901 15.83665674415259
Prox-1
1 44339U 19036A   26192.41927999  .00007239  00000-0  68271-3 0  9990
2 44339  23.9958 312.3099 0005695 324.7055  35.3067 14.91197560377092
Taurus 1
1 44530U 19059C   26192.77805381  .00003618  00000-0  58026-3 0  9991
2 44530  98.6431 359.1389 0007743 227.1920 132.8636 14.72350068362265
TO-108
1 44881U 19093C   26192.74813978  .00000560  00000-0  69174-4 0  9996
2 44881  97.7523 264.3803 0013870  12.5804 347.5755 14.86556950355069
RS-44
1 44909U 19096E   26192.78847947 -.00000003  00000-0 -62741-4 0  9994
2 44909  82.5240 323.3575 0218564  86.9189 275.6896 12.79748964305495
SALSAT
1 46495U 20068K   26192.54062004  .00004447  00000-0  15528-3 0  9998
2 46495  97.8855 197.0941 0008823 206.5203 153.5586 15.30139435319080
CSS (TIANHE-1)
1 48274U 21035A   26192.62540877  .00001368  00000-0  21992-4 0  9990
2 48274  41.4689 173.4699 0002534 289.9919  70.0645 15.58019839296984
CUTE
1 49263U 21088D   26192.77551077  .01101885  76203-3  11217-2 0  9991
2 49263  97.3993 294.6780 0005931 312.2336  47.8444 16.11033303266488
TeikyoSat 4
1 49396U 21102B   26192.64682293  .00000961  00000-0  63567-4 0  9994
2 49396  97.3665 221.1793 0011398 201.2231 158.8527 15.09590713256411
Z-Sat
1 49399U 21102E   26192.77980731  .00001664  00000-0  83737-4 0  9991
2 49399  97.3320 227.3568 0017233 155.9123 204.2921 15.18443281257174
KOSEN 1
1 49402U 21102H   26192.64983530  .00004686  00000-0  17803-3 0  9999
2 49402  97.3173 234.3348 0015279 118.6044 241.6734 15.27181096257759
HO-113
1 50466U 21131B   26192.76764339  .00000438  00000-0  14871-3 0  9993
2 50466  98.4983 285.0250 0004820  39.4262 320.7277 14.41380720238658
SNUGLITE 2
1 52899U 22065F   26192.62962967  .00000478  00000-0  99611-4 0  9994
2 52899  98.2230 337.4211 0006399 313.7213  46.3459 14.64390506214575
UmKA 1 (RS40S)
1 57172U 23091G   26192.76515080  .00003676  00000-0  16813-3 0  9993
2 57172  97.5042 251.3700 0013368  40.8300 319.3934 15.21097564167742
CubeBel-2 (EU11S)
1 57175U 23091K   26192.71801980  .00007821  00000-0  27353-3 0  9995
2 57175  97.5044 256.1619 0009920  38.2371 321.9571 15.29769050168052
